Regional Weather Roundup
Issued by NWS Green Bay, WI

Home | Current Version | Previous Version | Text Only | Print | Product List | Glossary On
Versions: 1 2 3 4 5 6 7 8 9 10 11 12 13 14 15 16 17 18 19 20 21 22 23 24 25 26 27 28 29 30 31 32 33 34 35 36 37 38 39 40 41 42 43 44 45 46 47 48 49 50
000
ASUS43 KGRB 291010
RWRGRB

NORTH-CENTRAL AND NORTHEAST WISCONSIN REGIONAL WEATHER ROUNDUP
NATIONAL WEATHER SERVICE GREEN BAY WI
500 AM CDT TUE JUL 29 2014

WIZ005-009-010>012-018-019-291100-
NORTH CENTRAL WISCONSIN

CITY           SKY/WX    TMP DP  RH WIND       PRES   REMARKS
IRONWOOD       NOT AVBL
MANITOWISH WTR CLOUDY    51  51 100 CALM      30.05R
ARBOR VITAE    PTCLDY    53  50  90 CALM      30.05S
EAGLE RIVER    FOG       47  47 100 CALM      30.03S VSB 1/4
LAND O LAKES   PTCLDY    48  47  98 CALM      30.04S FOG
RHINELANDER    PTCLDY    49  48  97 W3        30.05S FOG
PHILLIPS       CLEAR     51  51 100 CALM      30.06R FOG
ANTIGO         PTCLDY    52  51  98 NW6       30.05R
TOMAHAWK       MOCLDY    50  49  97 CALM      30.06S FOG
MERRILL        CLEAR     49  49 100 CALM      30.05S FOG
$$

WIZ013-073-291100-
NORTHEAST WISCONSIN

CITY           SKY/WX    TMP DP  RH WIND       PRES   REMARKS
IRON MOUNTAIN  CLEAR     55  51  86 NW5       29.98S
MARINETTE      PTCLDY    57  54  88 NW6       29.97S
OCONTO         PTCLDY    56  55  97 NW3       29.99R
$$

WIZ017-030-035>037-045-291100-
CENTRAL WISCONSIN

CITY           SKY/WX    TMP DP  RH WIND       PRES   REMARKS
MEDFORD        MOCLDY    51  51  99 CALM      30.06S
WAUSAU         CLEAR     56  53  90 NW7       30.04R
MOSINEE        PTCLDY    55  54  94 NW9       30.05S
MARSHFIELD     CLEAR     54  52  93 NW8       30.05S
WISC RAPIDS    PTCLDY    54  53  97 CALM      30.06R
STEVENS POINT  PTCLDY    55  52  90 CALM      30.05R
WAUPACA        PTCLDY    60  55  81 W3        30.03S
SHAWANO        MOCLDY    58  55  87 NW3       30.01R
CLINTONVILLE   MOCLDY    57  54  88 NW6       30.01S
$$

WIZ038-039-048-051-291100-
FOX VALLEY

CITY           SKY/WX    TMP DP  RH WIND       PRES   REMARKS
NWS GREEN BAY  PTCLDY    57  54  89 W7        29.99F
APPLETON       CLEAR     55  52  88 W10       30.01S
OSHKOSH        CLEAR     58  54  86 W7        30.01R
FOND DU LAC    CLEAR     58  53  84 W3        30.02R
$$

WIZ022-050-052-291100-
EAST CENTRAL WISCONSIN

CITY           SKY/WX    TMP DP  RH WIND       PRES   REMARKS
STURGEON BAY   PTCLDY    57  52  82 CALM      29.98S
MANITOWOC      CLEAR     59  55  87 NW5       29.99S
SHEBOYGAN      CLEAR     57  54  89 W5        30.00S
$$

LMZ563-521-522-541>543-291100-
LAKESHORE

STATION/POSITION TIME  TEMP    WIND        PRES    VSBY  WAVE
                       AIR SEA DIR/SP/G                  HT/PER
                 (UTC) (F)     (DEG/KT/KT) (MB)    (MI)  (FT/S)
SHEBOYGAN LKSHOR 1000   64     290/ 10/ 12 1015.7S
KEWAUNEE LKSHORE 1000   57     290/  5/  7 1015.7S
ALGOMA MARINA    1000          330/  5/  7   N/A
NORTHPORT PIER   1000   61     300/  8/ 10 1014.6S
N MID LAKE BUOY  1000   56 52  290/  8/  8 1013.6S         1/ 3
S GREEN BAY BUOY 0900   62 66  310/ 10     1016.0S
CHAMBERS ISLAND  1000   60     290/  3/  7 1014.9R
MENOMINEE LKSHOR 1000   59     290/  6/  9 1015.5S
$$


USA.gov is the U.S. government's official web portal to all federal, state and local government web resources and services.